Location: Unspecified
(51.4874°N, 0.0000°E)
Time: 20:38:12
(UTC+00:00)

Sep Motor Cover - Visible Passes

Search period start: 04 April 2026 00:00
Search period end: 14 April 2026 00:00
Orbit: 840 x 1134 km, 71.0° (Epoch: 29 March)

Date Brightness Start Highest point End Pass type
(mag) Time Alt. Az. Time Alt. Az. Time Alt. Az.
4 Apr ? 00:05:59 14° E 00:05:59 14° E 00:07:46 10° ENE visible
4 Apr ? 01:50:53 82° E 01:50:53 82° E 01:56:42 10° NNE visible
4 Apr ? 03:35:46 17° W 03:38:47 26° NW 03:43:45 10° NNE visible
5 Apr ? 00:34:24 27° E 00:34:24 27° E 00:38:07 10° NE visible
5 Apr ? 02:19:17 53° W 02:20:01 57° NW 02:25:52 10° NNE visible
5 Apr ? 04:04:43 10° WNW 04:08:40 18° NNW 04:12:47 10° NNE visible
6 Apr ? 01:02:46 51° E 01:02:46 51° E 01:07:42 10° NE visible
6 Apr ? 02:47:39 28° W 02:49:30 34° NW 02:54:57 10° NNE visible
6 Apr ? 04:35:43 10° NW 04:38:47 14° NNW 04:41:56 10° NNE visible
6 Apr ? 23:46:15 18° ENE 23:46:15 18° ENE 23:48:38 10° NE visible
7 Apr ? 01:31:07 80° NW 01:31:07 80° NW 01:36:59 10° NNE visible
7 Apr ? 03:16:00 15° WNW 03:19:15 23° NW 03:23:59 10° NNE visible
8 Apr ? 00:14:34 33° ENE 00:14:34 33° ENE 00:18:34 10° NE visible
8 Apr ? 01:59:27 43° WNW 02:00:19 47° NW 02:06:07 10° NNE visible
8 Apr ? 03:45:34 10° WNW 03:49:14 17° NNW 03:53:03 10° NNE visible
8 Apr ? 22:58:00 11° ENE 22:58:00 11° ENE 22:58:29 10° ENE visible
9 Apr ? 00:42:52 62° ENE 00:42:52 62° ENE 00:48:02 10° NNE visible
9 Apr ? 02:27:45 23° WNW 02:29:55 29° NW 02:35:10 10° NNE visible
9 Apr ? 04:16:35 10° NW 04:19:25 13° NNW 04:22:19 10° NNE visible
9 Apr ? 23:26:16 22° ENE 23:26:16 22° ENE 23:29:17 10° NE visible
10 Apr ? 01:11:09 66° WNW 01:11:15 66° NW 01:17:14 10° NNE visible
10 Apr ? 02:56:01 12° WNW 02:59:45 20° NNW 03:04:13 10° NNE visible
10 Apr ? 23:54:31 42° ENE 23:54:31 42° ENE 23:58:59 10° NE visible
11 Apr ? 01:39:24 35° WNW 01:40:40 39° NW 01:46:21 10° NNE visible
11 Apr ? 03:26:26 10° NW 03:29:50 15° NNW 03:33:22 10° NNE visible
11 Apr ? 22:37:52 15° ENE 22:37:52 15° ENE 22:39:37 10° ENE visible
12 Apr ? 00:22:44 77° NE 00:22:44 77° NE 00:28:19 10° NNE visible
12 Apr ? 02:07:36 18° WNW 02:10:21 26° NW 02:15:24 10° NNE visible
12 Apr ? 03:57:24 10° NW 04:00:05 13° N 04:02:49 10° NNE visible
12 Apr ? 23:06:03 29° ENE 23:06:03 29° ENE 23:09:48 10° NE visible
13 Apr ? 00:50:55 51° WNW 00:51:32 54° NW 00:57:29 10° NNE visible
13 Apr ? 02:36:18 10° WNW 02:40:18 18° NNW 02:44:29 10° NNE visible
13 Apr ? 04:27:54 10° NNW 04:30:24 12° N 04:32:58 10° NNE visible
13 Apr ? 23:34:12 56° ENE 23:34:12 56° ENE 23:39:20 10° NE visible
